Year,Month,Day,Hour,Minute,Value (Times are PST for temperature in C)
2008,08,05,00,00,16.60
2008,08,05,00,01,16.60
2008,08,05,00,02,16.70
2008,08,05,00,03,16.70
2008,08,05,00,04,16.70
2008,08,05,00,05,16.70
2008,08,05,00,06,16.70
2008,08,05,00,07,16.70
2008,08,05,00,08,16.70
2008,08,05,00,09,16.70
2008,08,05,00,10,16.70
2008,08,05,00,11,16.70
2008,08,05,00,12,16.70
2008,08,05,00,13,16.70
2008,08,05,00,14,16.80
2008,08,05,00,15,16.80
2008,08,05,00,16,16.80
2008,08,05,00,17,16.70
2008,08,05,00,18,16.70
2008,08,05,00,19,16.70
2008,08,05,00,20,16.70
2008,08,05,00,21,16.70
2008,08,05,00,22,16.60
2008,08,05,00,23,16.60
2008,08,05,00,24,16.60
2008,08,05,00,25,16.50
2008,08,05,00,26,16.40
2008,08,05,00,27,16.40
2008,08,05,00,28,16.40
2008,08,05,00,29,16.30
2008,08,05,00,30,16.30
2008,08,05,00,31,16.30
2008,08,05,00,32,16.20
2008,08,05,00,33,16.20
2008,08,05,00,34,16.10
2008,08,05,00,35,16.10
2008,08,05,00,36,16.10
2008,08,05,00,37,16.10
2008,08,05,00,38,16.10
2008,08,05,00,39,16.10
2008,08,05,00,40,16.00
2008,08,05,00,41,16.00
2008,08,05,00,42,15.90
2008,08,05,00,43,15.90
2008,08,05,00,44,15.90
2008,08,05,00,45,15.80
2008,08,05,00,46,15.80
2008,08,05,00,47,15.80
2008,08,05,00,48,15.80
2008,08,05,00,49,15.80
2008,08,05,00,50,15.70
2008,08,05,00,51,15.70
2008,08,05,00,52,15.70
2008,08,05,00,53,15.70
2008,08,05,00,54,15.70
2008,08,05,00,55,15.70
2008,08,05,00,56,15.70
2008,08,05,00,57,15.80
2008,08,05,00,58,15.80
2008,08,05,00,59,15.80
2008,08,05,01,00,15.80
2008,08,05,01,01,15.80
2008,08,05,01,02,15.80
2008,08,05,01,03,15.90
2008,08,05,01,04,15.90
2008,08,05,01,05,15.80
2008,08,05,01,06,15.80
2008,08,05,01,07,15.80
2008,08,05,01,08,15.80
2008,08,05,01,09,15.80
2008,08,05,01,10,15.80
2008,08,05,01,11,15.80
2008,08,05,01,12,15.80
2008,08,05,01,13,15.80
2008,08,05,01,14,15.80
2008,08,05,01,15,15.80
2008,08,05,01,16,15.80
2008,08,05,01,17,15.80
2008,08,05,01,18,15.80
2008,08,05,01,19,15.80
2008,08,05,01,20,15.80
2008,08,05,01,21,15.70
2008,08,05,01,22,15.70
2008,08,05,01,23,15.70
2008,08,05,01,24,15.70
2008,08,05,01,25,15.70
2008,08,05,01,26,15.70
2008,08,05,01,27,15.70
2008,08,05,01,28,15.70
2008,08,05,01,29,15.70
2008,08,05,01,30,15.70
2008,08,05,01,31,15.70
2008,08,05,01,32,15.70
2008,08,05,01,33,15.60
2008,08,05,01,34,15.60
2008,08,05,01,35,15.60
2008,08,05,01,36,15.60
2008,08,05,01,37,15.60
2008,08,05,01,38,15.50
2008,08,05,01,39,15.50
2008,08,05,01,40,15.40
2008,08,05,01,41,15.40
2008,08,05,01,42,15.40
2008,08,05,01,43,15.30
2008,08,05,01,44,15.30
2008,08,05,01,45,15.30
2008,08,05,01,46,15.20
2008,08,05,01,47,15.20
2008,08,05,01,48,15.20
2008,08,05,01,49,15.10
2008,08,05,01,50,15.10
2008,08,05,01,51,15.00
2008,08,05,01,52,15.00
2008,08,05,01,53,15.00
2008,08,05,01,54,15.00
2008,08,05,01,55,15.00
2008,08,05,01,56,15.00
2008,08,05,01,57,15.00
2008,08,05,01,58,15.00
2008,08,05,01,59,15.00
2008,08,05,02,00,15.00
2008,08,05,02,01,15.00
2008,08,05,02,02,15.00
2008,08,05,02,03,14.90
2008,08,05,02,04,14.90
2008,08,05,02,05,14.90
2008,08,05,02,06,14.90
2008,08,05,02,07,14.90
2008,08,05,02,08,14.90
2008,08,05,02,09,14.90
2008,08,05,02,10,14.90
2008,08,05,02,11,14.90
2008,08,05,02,12,14.90
2008,08,05,02,13,14.90
2008,08,05,02,14,14.90
2008,08,05,02,15,14.90
2008,08,05,02,16,14.90
2008,08,05,02,17,14.90
2008,08,05,02,18,14.90
2008,08,05,02,19,14.90
2008,08,05,02,20,14.90
2008,08,05,02,21,14.90
2008,08,05,02,22,14.80
2008,08,05,02,23,14.80
2008,08,05,02,24,14.80
2008,08,05,02,25,14.70
2008,08,05,02,26,14.70
2008,08,05,02,27,14.70
2008,08,05,02,28,14.60
2008,08,05,02,29,14.60
2008,08,05,02,30,14.60
2008,08,05,02,31,14.60
2008,08,05,02,32,14.50
2008,08,05,02,33,14.50
2008,08,05,02,34,14.50
2008,08,05,02,35,14.50
2008,08,05,02,36,14.50
2008,08,05,02,37,14.40
2008,08,05,02,38,14.40
2008,08,05,02,39,14.40
2008,08,05,02,40,14.40
2008,08,05,02,41,14.40
2008,08,05,02,42,14.40
2008,08,05,02,43,14.40
2008,08,05,02,44,14.30
2008,08,05,02,45,14.30
2008,08,05,02,46,14.30
2008,08,05,02,47,14.30
2008,08,05,02,48,14.30
2008,08,05,02,49,14.20
2008,08,05,02,50,14.20
2008,08,05,02,51,14.20
2008,08,05,02,52,14.20
2008,08,05,02,53,14.10
2008,08,05,02,54,14.10
2008,08,05,02,55,14.10
2008,08,05,02,56,14.00
2008,08,05,02,57,14.00
2008,08,05,02,58,14.00
2008,08,05,02,59,14.00
2008,08,05,03,00,14.00
2008,08,05,03,01,14.00
2008,08,05,03,02,14.00
2008,08,05,03,03,14.00
2008,08,05,03,04,14.00
2008,08,05,03,05,13.90
2008,08,05,03,06,13.90
2008,08,05,03,07,13.80
2008,08,05,03,08,13.80
2008,08,05,03,09,13.80
2008,08,05,03,10,13.80
2008,08,05,03,11,13.80
2008,08,05,03,12,13.80
2008,08,05,03,13,13.80
2008,08,05,03,14,13.80
2008,08,05,03,15,13.80
2008,08,05,03,16,13.80
2008,08,05,03,17,13.80
2008,08,05,03,18,13.90
2008,08,05,03,19,13.90
2008,08,05,03,20,13.90
2008,08,05,03,21,13.90
2008,08,05,03,22,13.90
2008,08,05,03,23,13.90
2008,08,05,03,24,13.90
2008,08,05,03,25,13.90
2008,08,05,03,26,13.90
2008,08,05,03,27,13.90
2008,08,05,03,28,13.90
2008,08,05,03,29,13.90
2008,08,05,03,30,13.90
2008,08,05,03,31,13.80
2008,08,05,03,32,13.80
2008,08,05,03,33,13.80
2008,08,05,03,34,13.80
2008,08,05,03,35,13.80
2008,08,05,03,36,13.80
2008,08,05,03,37,13.80
2008,08,05,03,38,13.80
2008,08,05,03,39,13.80
2008,08,05,03,40,13.70
2008,08,05,03,41,13.70
2008,08,05,03,42,13.70
2008,08,05,03,43,13.70
2008,08,05,03,44,13.70
2008,08,05,03,45,13.70
2008,08,05,03,46,13.70
2008,08,05,03,47,13.70
2008,08,05,03,48,13.70
2008,08,05,03,49,13.60
2008,08,05,03,50,13.60
2008,08,05,03,51,13.60
2008,08,05,03,52,13.60
2008,08,05,03,53,13.60
2008,08,05,03,54,13.60
2008,08,05,03,55,13.60
2008,08,05,03,56,13.60
2008,08,05,03,57,13.60
2008,08,05,03,58,13.60
2008,08,05,03,59,13.60
2008,08,05,04,00,13.60
2008,08,05,04,01,13.50
2008,08,05,04,02,13.50
2008,08,05,04,03,13.40
2008,08,05,04,04,13.40
2008,08,05,04,05,13.30
2008,08,05,04,06,13.30
2008,08,05,04,07,13.30
2008,08,05,04,08,13.30
2008,08,05,04,09,13.30
2008,08,05,04,10,13.30
2008,08,05,04,11,13.20
2008,08,05,04,12,13.20
2008,08,05,04,13,13.20
2008,08,05,04,14,13.20
2008,08,05,04,15,13.20
2008,08,05,04,16,13.20
2008,08,05,04,17,13.20
2008,08,05,04,18,13.20
2008,08,05,04,19,13.10
2008,08,05,04,20,13.10
2008,08,05,04,21,13.10
2008,08,05,04,22,13.10
2008,08,05,04,23,13.10
2008,08,05,04,24,13.10
2008,08,05,04,25,13.10
2008,08,05,04,26,13.10
2008,08,05,04,27,13.10
2008,08,05,04,28,13.10
2008,08,05,04,29,13.10
2008,08,05,04,30,13.10
2008,08,05,04,31,13.10
2008,08,05,04,32,13.10
2008,08,05,04,33,13.10
2008,08,05,04,34,13.10
2008,08,05,04,35,13.10
2008,08,05,04,36,13.10
2008,08,05,04,37,13.10
2008,08,05,04,38,13.10
2008,08,05,04,39,13.10
2008,08,05,04,40,13.10
2008,08,05,04,41,13.10
2008,08,05,04,42,13.10
2008,08,05,04,43,13.10
2008,08,05,04,44,13.10
2008,08,05,04,45,13.10
2008,08,05,04,46,13.10
2008,08,05,04,47,13.10
2008,08,05,04,48,13.00
2008,08,05,04,49,13.00
2008,08,05,04,50,13.00
2008,08,05,04,51,13.00
2008,08,05,04,52,12.90
2008,08,05,04,53,12.90
2008,08,05,04,54,12.90
2008,08,05,04,55,12.90
2008,08,05,04,56,12.90
2008,08,05,04,57,12.90
2008,08,05,04,58,12.90
2008,08,05,04,59,12.90
2008,08,05,05,00,12.80
2008,08,05,05,01,12.80
2008,08,05,05,02,12.80
2008,08,05,05,03,12.80
2008,08,05,05,04,12.70
2008,08,05,05,05,12.70
2008,08,05,05,06,12.70
2008,08,05,05,07,12.70
2008,08,05,05,08,12.70
2008,08,05,05,09,12.70
2008,08,05,05,10,12.60
2008,08,05,05,11,12.60
2008,08,05,05,12,12.60
2008,08,05,05,13,12.60
2008,08,05,05,14,12.60
2008,08,05,05,15,12.60
2008,08,05,05,16,12.60
2008,08,05,05,17,12.60
2008,08,05,05,18,12.60
2008,08,05,05,19,12.60
2008,08,05,05,20,12.60
2008,08,05,05,21,12.60
2008,08,05,05,22,12.50
2008,08,05,05,23,12.50
2008,08,05,05,24,12.50
2008,08,05,05,25,12.40
2008,08,05,05,26,12.40
2008,08,05,05,27,12.40
2008,08,05,05,28,12.40
2008,08,05,05,29,12.40
2008,08,05,05,30,12.40
2008,08,05,05,31,12.40
2008,08,05,05,32,12.30
2008,08,05,05,33,12.30
2008,08,05,05,34,12.30
2008,08,05,05,35,12.30
2008,08,05,05,36,12.30
2008,08,05,05,37,12.30
2008,08,05,05,38,12.30
2008,08,05,05,39,12.30
2008,08,05,05,40,12.30
2008,08,05,05,41,12.30
2008,08,05,05,42,12.30
2008,08,05,05,43,12.20
2008,08,05,05,44,12.20
2008,08,05,05,45,12.20
2008,08,05,05,46,12.20
2008,08,05,05,47,12.20
2008,08,05,05,48,12.20
2008,08,05,05,49,12.20
2008,08,05,05,50,12.20
2008,08,05,05,51,12.20
2008,08,05,05,52,12.20
2008,08,05,05,53,12.20
2008,08,05,05,54,12.20
2008,08,05,05,55,12.20
2008,08,05,05,56,12.20
2008,08,05,05,57,12.10
2008,08,05,05,58,12.10
2008,08,05,05,59,12.10
2008,08,05,06,00,12.10
2008,08,05,06,01,12.10
2008,08,05,06,02,12.10
2008,08,05,06,03,12.10
2008,08,05,06,04,12.10
2008,08,05,06,05,12.10
2008,08,05,06,06,12.10
2008,08,05,06,07,12.10
2008,08,05,06,08,12.10
2008,08,05,06,09,12.00
2008,08,05,06,10,12.00
2008,08,05,06,11,12.00
2008,08,05,06,12,12.00
2008,08,05,06,13,12.00
2008,08,05,06,14,12.00
2008,08,05,06,15,12.00
2008,08,05,06,16,11.90
2008,08,05,06,17,11.90
2008,08,05,06,18,11.90
2008,08,05,06,19,11.90
2008,08,05,06,20,11.90
2008,08,05,06,21,11.90
2008,08,05,06,22,11.90
2008,08,05,06,23,11.90
2008,08,05,06,24,11.90
2008,08,05,06,25,11.90
2008,08,05,06,26,11.90
2008,08,05,06,27,11.90
2008,08,05,06,28,11.90
2008,08,05,06,29,11.90
2008,08,05,06,30,11.90
2008,08,05,06,31,11.90
2008,08,05,06,32,11.90
2008,08,05,06,33,11.90
2008,08,05,06,34,11.90
2008,08,05,06,35,11.90
2008,08,05,06,36,11.90
2008,08,05,06,37,11.90
2008,08,05,06,38,11.90
2008,08,05,06,39,11.90
2008,08,05,06,40,11.90
2008,08,05,06,41,11.90
2008,08,05,06,42,11.90
2008,08,05,06,43,12.00
2008,08,05,06,44,12.00
2008,08,05,06,45,12.00
2008,08,05,06,46,12.10
2008,08,05,06,47,12.10
2008,08,05,06,48,12.10
2008,08,05,06,49,12.10
2008,08,05,06,50,12.10
2008,08,05,06,51,12.10
2008,08,05,06,52,12.20
2008,08,05,06,53,12.20
2008,08,05,06,54,12.20
2008,08,05,06,55,12.20
2008,08,05,06,56,12.20
2008,08,05,06,57,12.20
2008,08,05,06,58,12.20
2008,08,05,06,59,12.20
2008,08,05,07,00,12.20
2008,08,05,07,01,12.20
2008,08,05,07,02,12.30
2008,08,05,07,03,12.30
2008,08,05,07,04,12.30
2008,08,05,07,05,12.30
2008,08,05,07,06,12.30
2008,08,05,07,07,12.30
2008,08,05,07,08,12.40
2008,08,05,07,09,12.40
2008,08,05,07,10,12.40
2008,08,05,07,11,12.40
2008,08,05,07,12,12.50
2008,08,05,07,13,12.50
2008,08,05,07,14,12.60
2008,08,05,07,15,12.60
2008,08,05,07,16,12.60
2008,08,05,07,17,12.60
2008,08,05,07,18,12.70
2008,08,05,07,19,12.70
2008,08,05,07,20,12.70
2008,08,05,07,21,12.80
2008,08,05,07,22,12.80
2008,08,05,07,23,12.80
2008,08,05,07,24,12.80
2008,08,05,07,25,12.90
2008,08,05,07,26,12.90
2008,08,05,07,27,13.00
2008,08,05,07,28,13.00
2008,08,05,07,29,13.10
2008,08,05,07,30,13.10
2008,08,05,07,31,13.10
2008,08,05,07,32,13.20
2008,08,05,07,33,13.20
2008,08,05,07,34,13.20
2008,08,05,07,35,13.30
2008,08,05,07,36,13.30
2008,08,05,07,37,13.30
2008,08,05,07,38,13.40
2008,08,05,07,39,13.40
2008,08,05,07,40,13.40
2008,08,05,07,41,13.50
2008,08,05,07,42,13.50
2008,08,05,07,43,13.60
2008,08,05,07,44,13.60
2008,08,05,07,45,13.70
2008,08,05,07,46,13.70
2008,08,05,07,47,13.70
2008,08,05,07,48,13.80
2008,08,05,07,49,13.80
2008,08,05,07,50,13.80
2008,08,05,07,51,13.80
2008,08,05,07,52,13.90
2008,08,05,07,53,13.90
2008,08,05,07,54,13.90
2008,08,05,07,55,14.00
2008,08,05,07,56,14.00
2008,08,05,07,57,14.10
2008,08,05,07,58,14.10
2008,08,05,07,59,14.10
2008,08,05,08,00,14.20
2008,08,05,08,01,14.20
2008,08,05,08,02,14.20
2008,08,05,08,03,14.30
2008,08,05,08,04,14.30
2008,08,05,08,05,14.40
2008,08,05,08,06,14.40
2008,08,05,08,07,14.40
2008,08,05,08,08,14.50
2008,08,05,08,09,14.60
2008,08,05,08,10,14.60
2008,08,05,08,11,14.70
2008,08,05,08,12,14.70
2008,08,05,08,13,14.80
2008,08,05,08,14,14.90
2008,08,05,08,15,15.00
2008,08,05,08,16,15.00
2008,08,05,08,17,15.00
2008,08,05,08,18,15.00
2008,08,05,08,19,15.00
2008,08,05,08,20,15.00
2008,08,05,08,21,15.10
2008,08,05,08,22,15.30
2008,08,05,08,23,15.30
2008,08,05,08,24,15.40
2008,08,05,08,25,15.40
2008,08,05,08,26,15.50
2008,08,05,08,27,15.50
2008,08,05,08,28,15.60
2008,08,05,08,29,15.70
2008,08,05,08,30,15.70
2008,08,05,08,31,15.80
2008,08,05,08,32,15.80
2008,08,05,08,33,15.90
2008,08,05,08,34,16.00
2008,08,05,08,35,16.10
2008,08,05,08,36,16.20
2008,08,05,08,37,16.30
2008,08,05,08,38,16.40
2008,08,05,08,39,16.50
2008,08,05,08,40,16.60
2008,08,05,08,41,16.60
2008,08,05,08,42,16.70
2008,08,05,08,43,16.70
2008,08,05,08,44,16.80
2008,08,05,08,45,16.80
2008,08,05,08,46,16.90
2008,08,05,08,47,16.90
2008,08,05,08,48,17.00
2008,08,05,08,49,17.00
2008,08,05,08,50,17.00
2008,08,05,08,51,17.10
2008,08,05,08,52,17.10
2008,08,05,08,53,17.20
2008,08,05,08,54,17.20
2008,08,05,08,55,17.30
2008,08,05,08,56,17.30
2008,08,05,08,57,17.40
2008,08,05,08,58,17.50
2008,08,05,08,59,17.50
2008,08,05,09,00,17.60
2008,08,05,09,01,17.70
2008,08,05,09,02,17.70
2008,08,05,09,03,17.80
2008,08,05,09,04,17.80
2008,08,05,09,05,17.90
2008,08,05,09,06,18.00
2008,08,05,09,07,18.00
2008,08,05,09,08,18.10
2008,08,05,09,09,18.20
2008,08,05,09,10,18.20
2008,08,05,09,11,18.30
2008,08,05,09,12,18.40
2008,08,05,09,13,18.40
2008,08,05,09,14,18.50
2008,08,05,09,15,18.60
2008,08,05,09,16,18.70
2008,08,05,09,17,18.70
2008,08,05,09,18,18.80
2008,08,05,09,19,18.90
2008,08,05,09,20,19.10
2008,08,05,09,21,19.20
2008,08,05,09,22,19.30
2008,08,05,09,23,19.40
2008,08,05,09,24,19.60
2008,08,05,09,25,19.60
2008,08,05,09,26,19.70
2008,08,05,09,27,19.80
2008,08,05,09,28,19.80
2008,08,05,09,29,19.90
2008,08,05,09,30,19.90
2008,08,05,09,31,20.00
2008,08,05,09,32,20.10
2008,08,05,09,33,20.10
2008,08,05,09,34,20.20
2008,08,05,09,35,20.30
2008,08,05,09,36,20.40
2008,08,05,09,37,20.40
2008,08,05,09,38,20.50
2008,08,05,09,39,20.50
2008,08,05,09,40,20.60
2008,08,05,09,41,20.60
2008,08,05,09,42,20.70
2008,08,05,09,43,20.80
2008,08,05,09,44,20.80
2008,08,05,09,45,20.80
2008,08,05,09,46,20.80
2008,08,05,09,47,20.80
2008,08,05,09,48,20.80
2008,08,05,09,49,20.90
2008,08,05,09,50,21.00
2008,08,05,09,51,21.00
2008,08,05,09,52,21.00
2008,08,05,09,53,21.10
2008,08,05,09,54,21.10
2008,08,05,09,55,21.10
2008,08,05,09,56,21.20
2008,08,05,09,57,21.20
2008,08,05,09,58,21.30
2008,08,05,09,59,21.30
2008,08,05,10,00,21.40
2008,08,05,10,01,21.40
2008,08,05,10,02,21.50
2008,08,05,10,03,21.60
2008,08,05,10,04,21.60
2008,08,05,10,05,21.70
2008,08,05,10,06,21.70
2008,08,05,10,07,21.70
2008,08,05,10,08,21.80
2008,08,05,10,09,21.90
2008,08,05,10,10,21.90
2008,08,05,10,11,22.00
2008,08,05,10,12,22.10
2008,08,05,10,13,22.20
2008,08,05,10,14,22.20
2008,08,05,10,15,22.30
2008,08,05,10,16,22.40
2008,08,05,10,17,22.50
2008,08,05,10,18,22.50
2008,08,05,10,19,22.60
2008,08,05,10,20,22.60
2008,08,05,10,21,22.70
2008,08,05,10,22,22.70
2008,08,05,10,23,22.80
2008,08,05,10,24,22.80
2008,08,05,10,25,22.90
2008,08,05,10,26,23.00
2008,08,05,10,27,23.00
2008,08,05,10,28,23.10
2008,08,05,10,29,23.20
2008,08,05,10,30,23.20
2008,08,05,10,31,23.30
2008,08,05,10,32,23.30
2008,08,05,10,33,23.40
2008,08,05,10,34,23.40
2008,08,05,10,35,23.40
2008,08,05,10,36,23.40
2008,08,05,10,37,23.40
2008,08,05,10,38,23.40
2008,08,05,10,39,23.40
2008,08,05,10,40,23.40
2008,08,05,10,41,23.50
2008,08,05,10,42,23.60
2008,08,05,10,43,23.60
2008,08,05,10,44,23.60
2008,08,05,10,45,23.70
2008,08,05,10,46,23.80
2008,08,05,10,47,23.90
2008,08,05,10,48,24.00
2008,08,05,10,49,24.20
2008,08,05,10,50,24.30
2008,08,05,10,51,24.40
2008,08,05,10,52,24.60
2008,08,05,10,53,24.80
2008,08,05,10,54,24.80
2008,08,05,10,55,24.90
2008,08,05,10,56,24.90
2008,08,05,10,57,25.00
2008,08,05,10,58,25.10
2008,08,05,10,59,25.20
2008,08,05,11,00,25.20
2008,08,05,11,01,25.20
2008,08,05,11,02,25.10
2008,08,05,11,03,25.00
2008,08,05,11,04,24.90
2008,08,05,11,05,24.90
2008,08,05,11,06,24.80
2008,08,05,11,07,24.80
2008,08,05,11,08,24.80
2008,08,05,11,09,24.90
2008,08,05,11,10,24.90
2008,08,05,11,11,25.00
2008,08,05,11,12,25.10
2008,08,05,11,13,25.20
2008,08,05,11,14,25.20
2008,08,05,11,15,25.20
2008,08,05,11,16,25.30
2008,08,05,11,17,25.40
2008,08,05,11,18,25.50
2008,08,05,11,19,25.60
2008,08,05,11,20,25.70
2008,08,05,11,21,25.80
2008,08,05,11,22,25.90
2008,08,05,11,23,25.90
2008,08,05,11,24,25.90
2008,08,05,11,25,25.90
2008,08,05,11,26,26.00
2008,08,05,11,27,26.10
2008,08,05,11,28,26.20
2008,08,05,11,29,26.20
2008,08,05,11,30,26.30
2008,08,05,11,31,26.30
2008,08,05,11,32,26.40
2008,08,05,11,33,26.30
2008,08,05,11,34,26.30
2008,08,05,11,35,26.40
2008,08,05,11,36,26.40
2008,08,05,11,37,26.40
2008,08,05,11,38,26.50
2008,08,05,11,39,26.50
2008,08,05,11,40,26.60
2008,08,05,11,41,26.60
2008,08,05,11,42,26.70
2008,08,05,11,43,26.80
2008,08,05,11,44,26.90
2008,08,05,11,45,26.90
2008,08,05,11,46,26.90
2008,08,05,11,47,26.90
2008,08,05,11,48,26.90
2008,08,05,11,49,26.90
2008,08,05,11,50,26.80
2008,08,05,11,51,26.70
2008,08,05,11,52,26.60
2008,08,05,11,53,26.50
2008,08,05,11,54,26.40
2008,08,05,11,55,26.40
2008,08,05,11,56,26.40
2008,08,05,11,57,26.40
2008,08,05,11,58,26.40
2008,08,05,11,59,26.40
2008,08,05,12,00,26.40
2008,08,05,12,01,26.40
2008,08,05,12,02,26.30
2008,08,05,12,03,26.30
2008,08,05,12,04,26.30
2008,08,05,12,05,26.30
2008,08,05,12,06,26.30
2008,08,05,12,07,26.40
2008,08,05,12,08,26.50
2008,08,05,12,09,26.60
2008,08,05,12,10,26.70
2008,08,05,12,11,26.70
2008,08,05,12,12,26.70
2008,08,05,12,13,26.60
2008,08,05,12,14,26.60
2008,08,05,12,15,26.60
2008,08,05,12,16,26.70
2008,08,05,12,17,26.70
2008,08,05,12,18,26.70
2008,08,05,12,19,26.80
2008,08,05,12,20,26.80
2008,08,05,12,21,26.90
2008,08,05,12,22,27.00
2008,08,05,12,23,27.10
2008,08,05,12,24,27.20
2008,08,05,12,25,27.40
2008,08,05,12,26,27.50
2008,08,05,12,27,27.70
2008,08,05,12,28,27.80
2008,08,05,12,29,27.80
2008,08,05,12,30,27.80
2008,08,05,12,31,27.80
2008,08,05,12,32,27.80
2008,08,05,12,33,27.70
2008,08,05,12,34,27.60
2008,08,05,12,35,27.50
2008,08,05,12,36,27.50
2008,08,05,12,37,27.40
2008,08,05,12,38,27.40
2008,08,05,12,39,27.40
2008,08,05,12,40,27.50
2008,08,05,12,41,27.60
2008,08,05,12,42,27.60
2008,08,05,12,43,27.50
2008,08,05,12,44,27.50
2008,08,05,12,45,27.50
2008,08,05,12,46,27.60
2008,08,05,12,47,27.70
2008,08,05,12,48,27.70
2008,08,05,12,49,27.80
2008,08,05,12,50,28.00
2008,08,05,12,51,28.10
2008,08,05,12,52,28.30
2008,08,05,12,53,28.50
2008,08,05,12,54,28.60
2008,08,05,12,55,28.80
2008,08,05,12,56,29.00
2008,08,05,12,57,29.10
2008,08,05,12,58,29.30
2008,08,05,12,59,29.30
2008,08,05,13,00,29.40
2008,08,05,13,01,29.50
2008,08,05,13,02,29.60
2008,08,05,13,03,29.60
2008,08,05,13,04,29.70
2008,08,05,13,05,29.70
2008,08,05,13,06,29.70
2008,08,05,13,07,29.80
2008,08,05,13,08,29.80
2008,08,05,13,09,29.90
2008,08,05,13,10,30.00
2008,08,05,13,11,30.00
2008,08,05,13,12,30.10
2008,08,05,13,13,30.20
2008,08,05,13,14,30.30
2008,08,05,13,15,30.30
2008,08,05,13,16,30.40
2008,08,05,13,17,30.40
2008,08,05,13,18,30.40
2008,08,05,13,19,30.40
2008,08,05,13,20,30.40
2008,08,05,13,21,30.30
2008,08,05,13,22,30.30
2008,08,05,13,23,30.30
2008,08,05,13,24,30.30
2008,08,05,13,25,30.30
2008,08,05,13,26,30.30
2008,08,05,13,27,30.40
2008,08,05,13,28,30.40
2008,08,05,13,29,30.30
2008,08,05,13,30,30.30
2008,08,05,13,31,30.40
2008,08,05,13,32,30.40
2008,08,05,13,33,30.40
2008,08,05,13,34,30.40
2008,08,05,13,35,30.50
2008,08,05,13,36,30.50
2008,08,05,13,37,30.50
2008,08,05,13,38,30.50
2008,08,05,13,39,30.60
2008,08,05,13,40,30.60
2008,08,05,13,41,30.60
2008,08,05,13,42,30.70
2008,08,05,13,43,30.80
2008,08,05,13,44,30.80
2008,08,05,13,45,30.80
2008,08,05,13,46,30.80
2008,08,05,13,47,30.80
2008,08,05,13,48,30.80
2008,08,05,13,49,30.80
2008,08,05,13,50,30.90
2008,08,05,13,51,30.90
2008,08,05,13,52,30.90
2008,08,05,13,53,31.00
2008,08,05,13,54,31.00
2008,08,05,13,55,31.10
2008,08,05,13,56,31.20
2008,08,05,13,57,31.20
2008,08,05,13,58,31.20
2008,08,05,13,59,31.20
2008,08,05,14,00,31.20
2008,08,05,14,01,31.20
2008,08,05,14,02,31.10
2008,08,05,14,03,31.10
2008,08,05,14,04,31.10
2008,08,05,14,05,31.10
2008,08,05,14,06,31.10
2008,08,05,14,07,31.10
2008,08,05,14,08,31.00
2008,08,05,14,09,31.10
2008,08,05,14,10,31.00
2008,08,05,14,11,31.00
2008,08,05,14,12,30.90
2008,08,05,14,13,30.90
2008,08,05,14,14,30.90
2008,08,05,14,15,30.90
2008,08,05,14,16,30.90
2008,08,05,14,17,31.00
2008,08,05,14,18,31.10
2008,08,05,14,19,31.10
2008,08,05,14,20,31.10
2008,08,05,14,21,31.10
2008,08,05,14,22,31.10
2008,08,05,14,23,31.10
2008,08,05,14,24,31.00
2008,08,05,14,25,31.00
2008,08,05,14,26,31.00
2008,08,05,14,27,31.00
2008,08,05,14,28,31.10
2008,08,05,14,29,31.10
2008,08,05,14,30,31.10
2008,08,05,14,31,31.10
2008,08,05,14,32,31.10
2008,08,05,14,33,31.10
2008,08,05,14,34,31.10
2008,08,05,14,35,31.10
2008,08,05,14,36,31.20
2008,08,05,14,37,31.20
2008,08,05,14,38,31.20
2008,08,05,14,39,31.20
2008,08,05,14,40,31.10
2008,08,05,14,41,31.00
2008,08,05,14,42,30.90
2008,08,05,14,43,30.90
2008,08,05,14,44,30.90
2008,08,05,14,45,30.90
2008,08,05,14,46,31.00
2008,08,05,14,47,31.00
2008,08,05,14,48,31.10
2008,08,05,14,49,31.10
2008,08,05,14,50,31.00
2008,08,05,14,51,31.00
2008,08,05,14,52,31.00
2008,08,05,14,53,31.00
2008,08,05,14,54,31.00
2008,08,05,14,55,31.10
2008,08,05,14,56,31.10
2008,08,05,14,57,31.10
2008,08,05,14,58,31.20
2008,08,05,14,59,31.30
2008,08,05,15,00,31.30
2008,08,05,15,01,31.40
2008,08,05,15,02,31.40
2008,08,05,15,03,31.40
2008,08,05,15,04,31.40
2008,08,05,15,05,31.50
2008,08,05,15,06,31.50
2008,08,05,15,07,31.50
2008,08,05,15,08,31.60
2008,08,05,15,09,31.60
2008,08,05,15,10,31.60
2008,08,05,15,11,31.70
2008,08,05,15,12,31.80
2008,08,05,15,13,31.80
2008,08,05,15,14,31.80
2008,08,05,15,15,31.80
2008,08,05,15,16,31.90
2008,08,05,15,17,31.90
2008,08,05,15,18,31.90
2008,08,05,15,19,31.90
2008,08,05,15,20,31.90
2008,08,05,15,21,31.90
2008,08,05,15,22,31.90
2008,08,05,15,23,31.80
2008,08,05,15,24,31.70
2008,08,05,15,25,31.60
2008,08,05,15,26,31.60
2008,08,05,15,27,31.50
2008,08,05,15,28,31.50
2008,08,05,15,29,31.50
2008,08,05,15,30,31.50
2008,08,05,15,31,31.40
2008,08,05,15,32,31.40
2008,08,05,15,33,31.30
2008,08,05,15,34,31.30
2008,08,05,15,35,31.30
2008,08,05,15,36,31.30
2008,08,05,15,37,31.40
2008,08,05,15,38,31.40
2008,08,05,15,39,31.40
2008,08,05,15,40,31.40
2008,08,05,15,41,31.40
2008,08,05,15,42,31.40
2008,08,05,15,43,31.30
2008,08,05,15,44,31.30
2008,08,05,15,45,31.20
2008,08,05,15,46,31.20
2008,08,05,15,47,31.20
2008,08,05,15,48,31.30
2008,08,05,15,49,31.20
2008,08,05,15,50,31.30
2008,08,05,15,51,31.30
2008,08,05,15,52,31.40
2008,08,05,15,53,31.40
2008,08,05,15,54,31.40
2008,08,05,15,55,31.40
2008,08,05,15,56,31.40
2008,08,05,15,57,31.40
2008,08,05,15,58,31.40
2008,08,05,15,59,31.50
2008,08,05,16,00,31.70
2008,08,05,16,01,31.70
2008,08,05,16,02,31.80
2008,08,05,16,03,31.80
2008,08,05,16,04,31.90
2008,08,05,16,05,32.00
2008,08,05,16,06,32.00
2008,08,05,16,07,32.00
2008,08,05,16,08,32.00
2008,08,05,16,09,32.00
2008,08,05,16,10,31.90
2008,08,05,16,11,31.90
2008,08,05,16,12,31.80
2008,08,05,16,13,31.80
2008,08,05,16,14,31.70
2008,08,05,16,15,31.70
2008,08,05,16,16,31.70
2008,08,05,16,17,31.70
2008,08,05,16,18,31.70
2008,08,05,16,19,31.70
2008,08,05,16,20,31.70
2008,08,05,16,21,31.70
2008,08,05,16,22,31.70
2008,08,05,16,23,31.70
2008,08,05,16,24,31.80
2008,08,05,16,25,31.90
2008,08,05,16,26,31.90
2008,08,05,16,27,31.90
2008,08,05,16,28,32.00
2008,08,05,16,29,32.00
2008,08,05,16,30,32.00
2008,08,05,16,31,32.00
2008,08,05,16,32,32.10
2008,08,05,16,33,32.20
2008,08,05,16,34,32.30
2008,08,05,16,35,32.40
2008,08,05,16,36,32.40
2008,08,05,16,37,32.50
2008,08,05,16,38,32.60
2008,08,05,16,39,32.60
2008,08,05,16,40,32.70
2008,08,05,16,41,32.70
2008,08,05,16,42,32.70
2008,08,05,16,43,32.80
2008,08,05,16,44,32.80
2008,08,05,16,45,32.80
2008,08,05,16,46,32.80
2008,08,05,16,47,32.80
2008,08,05,16,48,32.80
2008,08,05,16,49,32.80
2008,08,05,16,50,32.80
2008,08,05,16,51,32.80
2008,08,05,16,52,32.80
2008,08,05,16,53,32.80
2008,08,05,16,54,32.70
2008,08,05,16,55,32.50
2008,08,05,16,56,32.40
2008,08,05,16,57,32.40
2008,08,05,16,58,32.30
2008,08,05,16,59,32.30
2008,08,05,17,00,32.30
2008,08,05,17,01,32.30
2008,08,05,17,02,32.30
2008,08,05,17,03,32.30
2008,08,05,17,04,32.40
2008,08,05,17,05,32.40
2008,08,05,17,06,32.50
2008,08,05,17,07,32.50
2008,08,05,17,08,32.50
2008,08,05,17,09,32.50
2008,08,05,17,10,32.50
2008,08,05,17,11,32.50
2008,08,05,17,12,32.50
2008,08,05,17,13,32.50
2008,08,05,17,14,32.60
2008,08,05,17,15,32.60
2008,08,05,17,16,32.60
2008,08,05,17,17,32.60
2008,08,05,17,18,32.60
2008,08,05,17,19,32.70